User: anonymous   Login
Location: Eymir
(36.7333°N, 29.7833°E)
Time: 22:40:25
(UTC+00:00)
Language:

ARIANE 5 R/B - Orbit

View from above orbital plane
View from above orbital plane
View from above satellite
View from above satellite

Ground track
Ground track

The orbit is defined by the following mean orbital elements,

1 27387U          26069.50812603 +.00000000 +00000-0 +52747-4 0 00007
2 27387  98.8157  85.3375 0032985  58.4993 301.9408 14.36771493    03
Epoch (UTC): 10 March 2026 12:11:42
Eccentricity: 0.0032985
inclination: 98.8157°
perigee height: 746 km
apogee height: 793 km
right ascension of ascending node: 85.3375°
argument of perigee: 58.4993°
revolutions per day: 14.36771493
mean anomaly at epoch: 301.9408°

The dashed part of the orbit path shows where the satellite is in the earth's shadow,  

DLR